Year,Month,Day,Hour,Minute,Value (Times are PST for temperature in C)
2012,09,16,00,00,11.90
2012,09,16,00,01,11.80
2012,09,16,00,02,11.80
2012,09,16,00,03,11.80
2012,09,16,00,04,11.80
2012,09,16,00,05,11.70
2012,09,16,00,06,11.70
2012,09,16,00,07,11.70
2012,09,16,00,08,11.70
2012,09,16,00,09,11.70
2012,09,16,00,10,11.70
2012,09,16,00,11,11.70
2012,09,16,00,12,11.70
2012,09,16,00,13,11.70
2012,09,16,00,14,11.70
2012,09,16,00,15,11.70
2012,09,16,00,16,11.70
2012,09,16,00,17,11.70
2012,09,16,00,18,11.70
2012,09,16,00,19,11.70
2012,09,16,00,20,11.70
2012,09,16,00,21,11.60
2012,09,16,00,22,11.60
2012,09,16,00,23,11.60
2012,09,16,00,24,11.60
2012,09,16,00,25,11.50
2012,09,16,00,26,11.50
2012,09,16,00,27,11.40
2012,09,16,00,28,11.40
2012,09,16,00,29,11.40
2012,09,16,00,30,11.40
2012,09,16,00,31,11.40
2012,09,16,00,32,11.40
2012,09,16,00,33,11.30
2012,09,16,00,34,11.30
2012,09,16,00,35,11.30
2012,09,16,00,36,11.30
2012,09,16,00,37,11.20
2012,09,16,00,38,11.20
2012,09,16,00,39,11.20
2012,09,16,00,40,11.20
2012,09,16,00,41,11.20
2012,09,16,00,42,11.10
2012,09,16,00,43,11.10
2012,09,16,00,44,11.10
2012,09,16,00,45,11.10
2012,09,16,00,46,11.10
2012,09,16,00,47,11.10
2012,09,16,00,48,11.10
2012,09,16,00,49,11.10
2012,09,16,00,50,11.10
2012,09,16,00,51,11.00
2012,09,16,00,52,11.00
2012,09,16,00,53,11.00
2012,09,16,00,54,10.90
2012,09,16,00,55,10.90
2012,09,16,00,56,10.90
2012,09,16,00,57,10.90
2012,09,16,00,58,10.90
2012,09,16,00,59,10.90
2012,09,16,01,00,10.90
2012,09,16,01,01,10.90
2012,09,16,01,02,10.80
2012,09,16,01,03,10.80
2012,09,16,01,04,10.80
2012,09,16,01,05,10.80
2012,09,16,01,06,10.70
2012,09,16,01,07,10.70
2012,09,16,01,08,10.70
2012,09,16,01,09,10.70
2012,09,16,01,10,10.60
2012,09,16,01,11,10.60
2012,09,16,01,12,10.60
2012,09,16,01,13,10.60
2012,09,16,01,14,10.70
2012,09,16,01,15,10.70
2012,09,16,01,16,10.70
2012,09,16,01,17,10.70
2012,09,16,01,18,10.70
2012,09,16,01,19,10.70
2012,09,16,01,20,10.70
2012,09,16,01,21,10.70
2012,09,16,01,22,10.70
2012,09,16,01,23,10.70
2012,09,16,01,24,10.70
2012,09,16,01,25,10.70
2012,09,16,01,26,10.60
2012,09,16,01,27,10.60
2012,09,16,01,28,10.60
2012,09,16,01,29,10.60
2012,09,16,01,30,10.60
2012,09,16,01,31,10.60
2012,09,16,01,32,10.60
2012,09,16,01,33,10.60
2012,09,16,01,34,10.60
2012,09,16,01,35,10.60
2012,09,16,01,36,10.60
2012,09,16,01,37,10.60
2012,09,16,01,38,10.50
2012,09,16,01,39,10.50
2012,09,16,01,40,10.50
2012,09,16,01,41,10.50
2012,09,16,01,42,10.50
2012,09,16,01,43,10.50
2012,09,16,01,44,10.50
2012,09,16,01,45,10.50
2012,09,16,01,46,10.50
2012,09,16,01,47,10.50
2012,09,16,01,48,10.50
2012,09,16,01,49,10.50
2012,09,16,01,50,10.50
2012,09,16,01,51,10.50
2012,09,16,01,52,10.40
2012,09,16,01,53,10.40
2012,09,16,01,54,10.40
2012,09,16,01,55,10.40
2012,09,16,01,56,10.40
2012,09,16,01,57,10.40
2012,09,16,01,58,10.40
2012,09,16,01,59,10.40
2012,09,16,02,00,10.40
2012,09,16,02,01,10.40
2012,09,16,02,02,10.40
2012,09,16,02,03,10.40
2012,09,16,02,04,10.40
2012,09,16,02,05,10.40
2012,09,16,02,06,10.30
2012,09,16,02,07,10.30
2012,09,16,02,08,10.30
2012,09,16,02,09,10.30
2012,09,16,02,10,10.30
2012,09,16,02,11,10.30
2012,09,16,02,12,10.30
2012,09,16,02,13,10.30
2012,09,16,02,14,10.30
2012,09,16,02,15,10.30
2012,09,16,02,16,10.20
2012,09,16,02,17,10.20
2012,09,16,02,18,10.20
2012,09,16,02,19,10.10
2012,09,16,02,20,10.10
2012,09,16,02,21,10.00
2012,09,16,02,22,10.00
2012,09,16,02,23,9.90
2012,09,16,02,24,9.90
2012,09,16,02,25,9.90
2012,09,16,02,26,9.80
2012,09,16,02,27,9.80
2012,09,16,02,28,9.80
2012,09,16,02,29,9.70
2012,09,16,02,30,9.70
2012,09,16,02,31,9.70
2012,09,16,02,32,9.60
2012,09,16,02,33,9.60
2012,09,16,02,34,9.60
2012,09,16,02,35,9.60
2012,09,16,02,36,9.60
2012,09,16,02,37,9.50
2012,09,16,02,38,9.50
2012,09,16,02,39,9.50
2012,09,16,02,40,9.50
2012,09,16,02,41,9.40
2012,09,16,02,42,9.40
2012,09,16,02,43,9.40
2012,09,16,02,44,9.40
2012,09,16,02,45,9.40
2012,09,16,02,46,9.40
2012,09,16,02,47,9.50
2012,09,16,02,48,9.50
2012,09,16,02,49,9.50
2012,09,16,02,50,9.50
2012,09,16,02,51,9.50
2012,09,16,02,52,9.60
2012,09,16,02,53,9.60
2012,09,16,02,54,9.60
2012,09,16,02,55,9.70
2012,09,16,02,56,9.70
2012,09,16,02,57,9.70
2012,09,16,02,58,9.70
2012,09,16,02,59,9.80
2012,09,16,03,00,9.80
2012,09,16,03,01,9.80
2012,09,16,03,02,9.80
2012,09,16,03,03,9.80
2012,09,16,03,06,9.70
2012,09,16,03,07,9.60
2012,09,16,03,08,9.60
2012,09,16,03,09,9.60
2012,09,16,03,10,9.50
2012,09,16,03,11,9.50
2012,09,16,03,12,9.40
2012,09,16,03,13,9.40
2012,09,16,03,14,9.40
2012,09,16,03,15,9.40
2012,09,16,03,16,9.40
2012,09,16,03,17,9.30
2012,09,16,03,18,9.40
2012,09,16,03,19,9.40
2012,09,16,03,20,9.40
2012,09,16,03,21,9.40
2012,09,16,03,22,9.40
2012,09,16,03,23,9.40
2012,09,16,03,24,9.40
2012,09,16,03,25,9.40
2012,09,16,03,26,9.40
2012,09,16,03,27,9.40
2012,09,16,03,28,9.40
2012,09,16,03,29,9.30
2012,09,16,03,30,9.30
2012,09,16,03,31,9.30
2012,09,16,03,32,9.30
2012,09,16,03,33,9.30
2012,09,16,03,34,9.30
2012,09,16,03,35,9.30
2012,09,16,03,36,9.30
2012,09,16,03,37,9.30
2012,09,16,03,38,9.20
2012,09,16,03,39,9.20
2012,09,16,03,40,9.20
2012,09,16,03,41,9.10
2012,09,16,03,42,9.10
2012,09,16,03,43,9.10
2012,09,16,03,44,9.00
2012,09,16,03,45,9.00
2012,09,16,03,46,8.90
2012,09,16,03,47,8.90
2012,09,16,03,48,8.90
2012,09,16,03,49,8.80
2012,09,16,03,50,8.80
2012,09,16,03,51,8.80
2012,09,16,03,52,8.80
2012,09,16,03,53,8.80
2012,09,16,03,54,8.80
2012,09,16,03,55,8.80
2012,09,16,03,56,8.90
2012,09,16,03,57,8.90
2012,09,16,03,58,8.90
2012,09,16,03,59,8.90
2012,09,16,04,00,8.90
2012,09,16,04,01,8.90
2012,09,16,04,02,8.90
2012,09,16,04,03,8.90
2012,09,16,04,04,8.90
2012,09,16,04,05,8.90
2012,09,16,04,06,8.90
2012,09,16,04,07,8.80
2012,09,16,04,08,8.80
2012,09,16,04,09,8.80
2012,09,16,04,10,8.80
2012,09,16,04,11,8.80
2012,09,16,04,12,8.80
2012,09,16,04,13,8.80
2012,09,16,04,14,8.80
2012,09,16,04,15,8.80
2012,09,16,04,16,8.80
2012,09,16,04,17,8.70
2012,09,16,04,18,8.70
2012,09,16,04,19,8.80
2012,09,16,04,20,8.80
2012,09,16,04,21,8.80
2012,09,16,04,22,8.80
2012,09,16,04,23,8.80
2012,09,16,04,24,8.80
2012,09,16,04,25,8.80
2012,09,16,04,26,8.80
2012,09,16,04,27,8.80
2012,09,16,04,28,8.80
2012,09,16,04,29,8.80
2012,09,16,04,30,8.70
2012,09,16,04,31,8.70
2012,09,16,04,32,8.70
2012,09,16,04,33,8.70
2012,09,16,04,34,8.60
2012,09,16,04,35,8.60
2012,09,16,04,36,8.60
2012,09,16,04,37,8.60
2012,09,16,04,38,8.50
2012,09,16,04,39,8.50
2012,09,16,04,40,8.50
2012,09,16,04,41,8.50
2012,09,16,04,42,8.50
2012,09,16,04,43,8.50
2012,09,16,04,44,8.50
2012,09,16,04,45,8.50
2012,09,16,04,46,8.50
2012,09,16,04,47,8.50
2012,09,16,04,48,8.50
2012,09,16,04,49,8.40
2012,09,16,04,50,8.40
2012,09,16,04,51,8.40
2012,09,16,04,52,8.40
2012,09,16,04,53,8.50
2012,09,16,04,54,8.50
2012,09,16,04,55,8.50
2012,09,16,04,56,8.60
2012,09,16,04,57,8.60
2012,09,16,04,58,8.60
2012,09,16,04,59,8.60
2012,09,16,05,00,8.60
2012,09,16,05,01,8.60
2012,09,16,05,02,8.60
2012,09,16,05,03,8.70
2012,09,16,05,04,8.70
2012,09,16,05,05,8.70
2012,09,16,05,06,8.70
2012,09,16,05,07,8.70
2012,09,16,05,08,8.70
2012,09,16,05,09,8.70
2012,09,16,05,10,8.70
2012,09,16,05,11,8.70
2012,09,16,05,12,8.70
2012,09,16,05,13,8.70
2012,09,16,05,14,8.60
2012,09,16,05,15,8.60
2012,09,16,05,16,8.60
2012,09,16,05,17,8.60
2012,09,16,05,18,8.60
2012,09,16,05,19,8.60
2012,09,16,05,20,8.60
2012,09,16,05,21,8.60
2012,09,16,05,22,8.60
2012,09,16,05,23,8.60
2012,09,16,05,24,8.60
2012,09,16,05,25,8.60
2012,09,16,05,26,8.60
2012,09,16,05,27,8.60
2012,09,16,05,28,8.60
2012,09,16,05,29,8.60
2012,09,16,05,30,8.50
2012,09,16,05,31,8.50
2012,09,16,05,32,8.50
2012,09,16,05,33,8.50
2012,09,16,05,34,8.50
2012,09,16,05,35,8.40
2012,09,16,05,36,8.40
2012,09,16,05,37,8.40
2012,09,16,05,38,8.40
2012,09,16,05,39,8.40
2012,09,16,05,40,8.40
2012,09,16,05,41,8.40
2012,09,16,05,42,8.40
2012,09,16,05,43,8.30
2012,09,16,05,44,8.30
2012,09,16,05,45,8.30
2012,09,16,05,46,8.30
2012,09,16,05,47,8.30
2012,09,16,05,48,8.30
2012,09,16,05,49,8.30
2012,09,16,05,50,8.20
2012,09,16,05,51,8.20
2012,09,16,05,52,8.20
2012,09,16,05,53,8.20
2012,09,16,05,54,8.20
2012,09,16,05,55,8.20
2012,09,16,05,56,8.20
2012,09,16,05,57,8.20
2012,09,16,05,58,8.20
2012,09,16,05,59,8.30
2012,09,16,06,00,8.30
2012,09,16,06,01,8.30
2012,09,16,06,02,8.30
2012,09,16,06,03,8.30
2012,09,16,06,04,8.30
2012,09,16,06,05,8.30
2012,09,16,06,06,8.30
2012,09,16,06,07,8.30
2012,09,16,06,08,8.30
2012,09,16,06,09,8.30
2012,09,16,06,10,8.30
2012,09,16,06,11,8.30
2012,09,16,06,12,8.30
2012,09,16,06,13,8.30
2012,09,16,06,14,8.30
2012,09,16,06,15,8.30
2012,09,16,06,16,8.30
2012,09,16,06,17,8.30
2012,09,16,06,18,8.20
2012,09,16,06,19,8.20
2012,09,16,06,20,8.20
2012,09,16,06,21,8.20
2012,09,16,06,22,8.20
2012,09,16,06,23,8.20
2012,09,16,06,24,8.20
2012,09,16,06,25,8.20
2012,09,16,06,26,8.20
2012,09,16,06,27,8.20
2012,09,16,06,28,8.20
2012,09,16,06,29,8.20
2012,09,16,06,30,8.20
2012,09,16,06,31,8.10
2012,09,16,06,32,8.10
2012,09,16,06,33,8.10
2012,09,16,06,34,8.10
2012,09,16,06,35,8.10
2012,09,16,06,36,8.10
2012,09,16,06,37,8.10
2012,09,16,06,38,8.10
2012,09,16,06,39,8.10
2012,09,16,06,40,8.10
2012,09,16,06,41,8.10
2012,09,16,06,42,8.10
2012,09,16,06,43,8.10
2012,09,16,06,44,8.10
2012,09,16,06,45,8.10
2012,09,16,06,46,8.10
2012,09,16,06,47,8.10
2012,09,16,06,48,8.10
2012,09,16,06,49,8.10
2012,09,16,06,50,8.10
2012,09,16,06,51,8.20
2012,09,16,06,52,8.20
2012,09,16,06,53,8.20
2012,09,16,06,54,8.20
2012,09,16,06,55,8.20
2012,09,16,06,56,8.20
2012,09,16,06,57,8.20
2012,09,16,06,58,8.20
2012,09,16,06,59,8.20
2012,09,16,07,00,8.20
2012,09,16,07,01,8.20
2012,09,16,07,02,8.20
2012,09,16,07,03,8.20
2012,09,16,07,04,8.20
2012,09,16,07,05,8.20
2012,09,16,07,06,8.20
2012,09,16,07,07,8.20
2012,09,16,07,08,8.20
2012,09,16,07,09,8.20
2012,09,16,07,10,8.10
2012,09,16,07,11,8.10
2012,09,16,07,12,8.10
2012,09,16,07,13,8.10
2012,09,16,07,14,8.10
2012,09,16,07,15,8.10
2012,09,16,07,16,8.10
2012,09,16,07,17,8.10
2012,09,16,07,18,8.10
2012,09,16,07,19,8.10
2012,09,16,07,20,8.10
2012,09,16,07,21,8.10
2012,09,16,07,22,8.20
2012,09,16,07,23,8.20
2012,09,16,07,24,8.20
2012,09,16,07,25,8.20
2012,09,16,07,26,8.20
2012,09,16,07,27,8.20
2012,09,16,07,28,8.20
2012,09,16,07,29,8.20
2012,09,16,07,30,8.20
2012,09,16,07,31,8.20
2012,09,16,07,32,8.20
2012,09,16,07,33,8.20
2012,09,16,07,34,8.20
2012,09,16,07,35,8.20
2012,09,16,07,36,8.20
2012,09,16,07,37,8.20
2012,09,16,07,38,8.20
2012,09,16,07,39,8.20
2012,09,16,07,40,8.20
2012,09,16,07,41,8.20
2012,09,16,07,42,8.20
2012,09,16,07,43,8.20
2012,09,16,07,44,8.20
2012,09,16,07,45,8.30
2012,09,16,07,46,8.40
2012,09,16,07,47,8.50
2012,09,16,07,48,8.60
2012,09,16,07,49,8.70
2012,09,16,07,50,8.80
2012,09,16,07,51,8.80
2012,09,16,07,52,8.90
2012,09,16,07,53,8.90
2012,09,16,07,54,8.90
2012,09,16,07,55,8.90
2012,09,16,07,56,8.90
2012,09,16,07,57,8.90
2012,09,16,07,58,8.90
2012,09,16,07,59,8.90
2012,09,16,08,00,9.00
2012,09,16,08,01,9.00
2012,09,16,08,02,9.00
2012,09,16,08,03,9.10
2012,09,16,08,04,9.10
2012,09,16,08,05,9.10
2012,09,16,08,06,9.10
2012,09,16,08,07,9.20
2012,09,16,08,08,9.20
2012,09,16,08,09,9.20
2012,09,16,08,10,9.30
2012,09,16,08,11,9.30
2012,09,16,08,12,9.30
2012,09,16,08,13,9.40
2012,09,16,08,14,9.40
2012,09,16,08,15,9.50
2012,09,16,08,16,9.50
2012,09,16,08,17,9.60
2012,09,16,08,18,9.60
2012,09,16,08,19,9.70
2012,09,16,08,20,9.80
2012,09,16,08,21,9.80
2012,09,16,08,22,9.90
2012,09,16,08,23,10.00
2012,09,16,08,24,10.00
2012,09,16,08,25,10.10
2012,09,16,08,26,10.20
2012,09,16,08,27,10.30
2012,09,16,08,28,10.40
2012,09,16,08,29,10.50
2012,09,16,08,30,10.60
2012,09,16,08,31,10.60
2012,09,16,08,32,10.70
2012,09,16,08,33,10.80
2012,09,16,08,34,10.80
2012,09,16,08,35,10.90
2012,09,16,08,36,10.90
2012,09,16,08,37,11.00
2012,09,16,08,38,11.00
2012,09,16,08,39,11.00
2012,09,16,08,40,11.00
2012,09,16,08,41,11.10
2012,09,16,08,42,11.10
2012,09,16,08,43,11.10
2012,09,16,08,44,11.10
2012,09,16,08,45,11.10
2012,09,16,08,46,11.20
2012,09,16,08,47,11.20
2012,09,16,08,48,11.20
2012,09,16,08,49,11.20
2012,09,16,08,50,11.30
2012,09,16,08,51,11.30
2012,09,16,08,52,11.40
2012,09,16,08,53,11.40
2012,09,16,08,54,11.50
2012,09,16,08,55,11.60
2012,09,16,08,56,11.60
2012,09,16,08,57,11.70
2012,09,16,08,58,11.80
2012,09,16,08,59,11.80
2012,09,16,09,00,11.90
2012,09,16,09,01,11.90
2012,09,16,09,02,12.00
2012,09,16,09,03,12.10
2012,09,16,09,04,12.10
2012,09,16,09,05,12.20
2012,09,16,09,06,12.30
2012,09,16,09,07,12.40
2012,09,16,09,08,12.40
2012,09,16,09,09,12.50
2012,09,16,09,10,12.50
2012,09,16,09,11,12.60
2012,09,16,09,12,12.70
2012,09,16,09,13,12.70
2012,09,16,09,14,12.80
2012,09,16,09,15,12.90
2012,09,16,09,16,13.00
2012,09,16,09,17,13.00
2012,09,16,09,18,13.10
2012,09,16,09,19,13.20
2012,09,16,09,20,13.30
2012,09,16,09,21,13.40
2012,09,16,09,22,13.50
2012,09,16,09,23,13.60
2012,09,16,09,24,13.70
2012,09,16,09,25,13.80
2012,09,16,09,26,13.90
2012,09,16,09,27,14.10
2012,09,16,09,28,14.20
2012,09,16,09,29,14.30
2012,09,16,09,30,14.50
2012,09,16,09,31,14.60
2012,09,16,09,32,14.70
2012,09,16,09,33,14.80
2012,09,16,09,34,14.90
2012,09,16,09,35,15.00
2012,09,16,09,36,15.00
2012,09,16,09,37,15.10
2012,09,16,09,38,15.30
2012,09,16,09,39,15.40
2012,09,16,09,40,15.50
2012,09,16,09,41,15.60
2012,09,16,09,42,15.70
2012,09,16,09,43,15.80
2012,09,16,09,44,16.00
2012,09,16,09,45,16.10
2012,09,16,09,46,16.20
2012,09,16,09,47,16.30
2012,09,16,09,48,16.40
2012,09,16,09,49,16.50
2012,09,16,09,50,16.70
2012,09,16,09,51,16.80
2012,09,16,09,52,16.90
2012,09,16,09,53,17.10
2012,09,16,09,54,17.30
2012,09,16,09,55,17.40
2012,09,16,09,56,17.60
2012,09,16,09,57,17.70
2012,09,16,09,58,17.80
2012,09,16,09,59,17.90
2012,09,16,10,00,17.90
2012,09,16,10,01,18.00
2012,09,16,10,02,18.10
2012,09,16,10,03,18.10
2012,09,16,10,04,18.10
2012,09,16,10,05,18.20
2012,09,16,10,06,18.20
2012,09,16,10,07,18.30
2012,09,16,10,08,18.30
2012,09,16,10,09,18.30
2012,09,16,10,10,18.40
2012,09,16,10,11,18.50
2012,09,16,10,12,18.50
2012,09,16,10,13,18.60
2012,09,16,10,14,18.60
2012,09,16,10,15,18.70
2012,09,16,10,16,18.70
2012,09,16,10,17,18.70
2012,09,16,10,18,18.80
2012,09,16,10,19,18.80
2012,09,16,10,20,18.80
2012,09,16,10,21,18.90
2012,09,16,10,22,19.00
2012,09,16,10,23,19.10
2012,09,16,10,24,19.20
2012,09,16,10,25,19.30
2012,09,16,10,26,19.30
2012,09,16,10,27,19.40
2012,09,16,10,28,19.40
2012,09,16,10,29,19.40
2012,09,16,10,30,19.50
2012,09,16,10,31,19.60
2012,09,16,10,32,19.60
2012,09,16,10,33,19.60
2012,09,16,10,34,19.70
2012,09,16,10,35,19.80
2012,09,16,10,36,19.80
2012,09,16,10,37,19.90
2012,09,16,10,38,19.90
2012,09,16,10,39,20.00
2012,09,16,10,40,20.00
2012,09,16,10,41,20.10
2012,09,16,10,42,20.10
2012,09,16,10,43,20.10
2012,09,16,10,44,20.20
2012,09,16,10,45,20.20
2012,09,16,10,46,20.20
2012,09,16,10,47,20.30
2012,09,16,10,48,20.30
2012,09,16,10,49,20.30
2012,09,16,10,50,20.30
2012,09,16,10,51,20.30
2012,09,16,10,52,20.40
2012,09,16,10,53,20.40
2012,09,16,10,54,20.50
2012,09,16,10,55,20.50
2012,09,16,10,56,20.60
2012,09,16,10,57,20.60
2012,09,16,10,58,20.60
2012,09,16,10,59,20.70
2012,09,16,11,00,20.70
2012,09,16,11,01,20.70
2012,09,16,11,02,20.70
2012,09,16,11,03,20.80
2012,09,16,11,04,20.90
2012,09,16,11,05,20.90
2012,09,16,11,06,21.00
2012,09,16,11,07,21.00
2012,09,16,11,08,21.10
2012,09,16,11,09,21.20
2012,09,16,11,10,21.20
2012,09,16,11,11,21.20
2012,09,16,11,12,21.30
2012,09,16,11,13,21.30
2012,09,16,11,14,21.40
2012,09,16,11,15,21.50
2012,09,16,11,16,21.50
2012,09,16,11,17,21.60
2012,09,16,11,18,21.70
2012,09,16,11,19,21.80
2012,09,16,11,20,21.80
2012,09,16,11,21,21.90
2012,09,16,11,22,22.00
2012,09,16,11,23,22.00
2012,09,16,11,24,22.10
2012,09,16,11,25,22.10
2012,09,16,11,26,22.10
2012,09,16,11,27,22.10
2012,09,16,11,28,22.20
2012,09,16,11,29,22.20
2012,09,16,11,30,22.20
2012,09,16,11,31,22.20
2012,09,16,11,32,22.30
2012,09,16,11,33,22.30
2012,09,16,11,34,22.30
2012,09,16,11,35,22.30
2012,09,16,11,36,22.30
2012,09,16,11,37,22.40
2012,09,16,11,38,22.40
2012,09,16,11,39,22.50
2012,09,16,11,40,22.60
2012,09,16,11,41,22.60
2012,09,16,11,42,22.70
2012,09,16,11,43,22.70
2012,09,16,11,44,22.70
2012,09,16,11,45,22.70
2012,09,16,11,46,22.70
2012,09,16,11,47,22.70
2012,09,16,11,48,22.70
2012,09,16,11,49,22.70
2012,09,16,11,50,22.70
2012,09,16,11,51,22.70
2012,09,16,11,52,22.70
2012,09,16,11,53,22.70
2012,09,16,11,54,22.70
2012,09,16,11,55,22.80
2012,09,16,11,56,22.80
2012,09,16,11,57,22.80
2012,09,16,11,58,22.90
2012,09,16,11,59,22.90
2012,09,16,12,00,23.00
2012,09,16,12,01,23.10
2012,09,16,12,02,23.30
2012,09,16,12,03,23.30
2012,09,16,12,04,23.50
2012,09,16,12,05,23.60
2012,09,16,12,06,23.60
2012,09,16,12,07,23.70
2012,09,16,12,08,23.70
2012,09,16,12,09,23.70
2012,09,16,12,10,23.60
2012,09,16,12,11,23.50
2012,09,16,12,12,23.50
2012,09,16,12,13,23.40
2012,09,16,12,14,23.40
2012,09,16,12,15,23.40
2012,09,16,12,16,23.50
2012,09,16,12,17,23.50
2012,09,16,12,18,23.60
2012,09,16,12,19,23.60
2012,09,16,12,20,23.70
2012,09,16,12,21,23.80
2012,09,16,12,22,23.80
2012,09,16,12,23,23.80
2012,09,16,12,24,23.80
2012,09,16,12,25,23.80
2012,09,16,12,26,23.80
2012,09,16,12,27,23.90
2012,09,16,12,28,23.90
2012,09,16,12,29,24.00
2012,09,16,12,30,24.10
2012,09,16,12,31,24.20
2012,09,16,12,32,24.30
2012,09,16,12,33,24.40
2012,09,16,12,34,24.50
2012,09,16,12,35,24.60
2012,09,16,12,36,24.70
2012,09,16,12,37,24.70
2012,09,16,12,38,24.80
2012,09,16,12,39,24.80
2012,09,16,12,40,24.90
2012,09,16,12,41,25.00
2012,09,16,12,42,25.00
2012,09,16,12,43,25.00
2012,09,16,12,44,25.00
2012,09,16,12,45,25.00
2012,09,16,12,46,25.00
2012,09,16,12,47,25.00
2012,09,16,12,48,25.10
2012,09,16,12,49,25.10
2012,09,16,12,50,25.10
2012,09,16,12,51,25.20
2012,09,16,12,52,25.30
2012,09,16,12,53,25.40
2012,09,16,12,54,25.40
2012,09,16,12,55,25.40
2012,09,16,12,56,25.40
2012,09,16,12,57,25.30
2012,09,16,12,58,25.30
2012,09,16,12,59,25.20
2012,09,16,13,00,25.20
2012,09,16,13,01,25.20
2012,09,16,13,02,25.30
2012,09,16,13,03,25.30
2012,09,16,13,04,25.30
2012,09,16,13,05,25.40
2012,09,16,13,06,25.40
2012,09,16,13,07,25.40
2012,09,16,13,08,25.50
2012,09,16,13,09,25.50
2012,09,16,13,10,25.50
2012,09,16,13,11,25.60
2012,09,16,13,12,25.70
2012,09,16,13,13,25.70
2012,09,16,13,14,25.80
2012,09,16,13,15,25.90
2012,09,16,13,16,26.00
2012,09,16,13,17,26.10
2012,09,16,13,18,26.20
2012,09,16,13,19,26.20
2012,09,16,13,20,26.20
2012,09,16,13,21,26.10
2012,09,16,13,22,26.00
2012,09,16,13,23,26.00
2012,09,16,13,24,25.90
2012,09,16,13,25,25.80
2012,09,16,13,26,25.70
2012,09,16,13,27,25.70
2012,09,16,13,28,25.60
2012,09,16,13,29,25.60
2012,09,16,13,30,25.60
2012,09,16,13,31,25.60
2012,09,16,13,32,25.60
2012,09,16,13,33,25.60
2012,09,16,13,34,25.70
2012,09,16,13,35,25.70
2012,09,16,13,36,25.80
2012,09,16,13,37,25.80
2012,09,16,13,38,25.90
2012,09,16,13,39,25.90
2012,09,16,13,40,25.90
2012,09,16,13,41,25.90
2012,09,16,13,42,25.90
2012,09,16,13,43,25.90
2012,09,16,13,44,25.90
2012,09,16,13,45,25.90
2012,09,16,13,46,26.00
2012,09,16,13,47,26.10
2012,09,16,13,48,26.10
2012,09,16,13,49,26.10
2012,09,16,13,50,26.10
2012,09,16,13,51,26.10
2012,09,16,13,52,26.10
2012,09,16,13,53,26.00
2012,09,16,13,54,25.90
2012,09,16,13,55,25.90
2012,09,16,13,56,25.90
2012,09,16,13,57,25.90
2012,09,16,13,58,26.00
2012,09,16,13,59,26.10
2012,09,16,14,00,26.10
2012,09,16,14,01,26.10
2012,09,16,14,02,26.20
2012,09,16,14,03,26.20
2012,09,16,14,04,26.20
2012,09,16,14,05,26.20
2012,09,16,14,06,26.20
2012,09,16,14,07,26.20
2012,09,16,14,08,26.20
2012,09,16,14,09,26.10
2012,09,16,14,10,26.10
2012,09,16,14,11,26.10
2012,09,16,14,12,26.00
2012,09,16,14,13,26.00
2012,09,16,14,14,26.00
2012,09,16,14,15,26.00
2012,09,16,14,16,26.00
2012,09,16,14,17,26.00
2012,09,16,14,18,26.10
2012,09,16,14,19,26.10
2012,09,16,14,20,26.20
2012,09,16,14,21,26.20
2012,09,16,14,22,26.20
2012,09,16,14,23,26.30
2012,09,16,14,24,26.30
2012,09,16,14,25,26.40
2012,09,16,14,26,26.50
2012,09,16,14,27,26.60
2012,09,16,14,28,26.80
2012,09,16,14,29,26.90
2012,09,16,14,30,26.90
2012,09,16,14,31,26.90
2012,09,16,14,32,26.90
2012,09,16,14,33,26.90
2012,09,16,14,34,26.90
2012,09,16,14,35,26.90
2012,09,16,14,36,26.90
2012,09,16,14,37,26.90
2012,09,16,14,38,27.00
2012,09,16,14,39,27.00
2012,09,16,14,40,27.10
2012,09,16,14,41,27.20
2012,09,16,14,42,27.30
2012,09,16,14,43,27.30
2012,09,16,14,44,27.40
2012,09,16,14,45,27.40
2012,09,16,14,46,27.40
2012,09,16,14,47,27.40
2012,09,16,14,48,27.40
2012,09,16,14,49,27.50
2012,09,16,14,50,27.50
2012,09,16,14,51,27.50
2012,09,16,14,52,27.60
2012,09,16,14,53,27.60
2012,09,16,14,54,27.60
2012,09,16,14,55,27.60
2012,09,16,14,56,27.60
2012,09,16,14,57,27.60
2012,09,16,14,58,27.60
2012,09,16,14,59,27.60
2012,09,16,15,00,27.60
2012,09,16,15,01,27.50
2012,09,16,15,02,27.50
2012,09,16,15,03,27.50
2012,09,16,15,04,27.60
2012,09,16,15,05,27.60
2012,09,16,15,06,27.60
2012,09,16,15,07,27.70
2012,09,16,15,08,27.80
2012,09,16,15,09,27.80
2012,09,16,15,10,27.80
2012,09,16,15,11,27.80
2012,09,16,15,12,27.90
2012,09,16,15,13,27.80
2012,09,16,15,14,27.90
2012,09,16,15,15,27.90
2012,09,16,15,16,28.00
2012,09,16,15,17,28.10
2012,09,16,15,18,28.10
2012,09,16,15,19,28.10
2012,09,16,15,20,28.20
2012,09,16,15,21,28.20
2012,09,16,15,22,28.20
2012,09,16,15,23,28.20
2012,09,16,15,24,28.20
2012,09,16,15,25,28.20
2012,09,16,15,26,28.20
2012,09,16,15,27,28.30
2012,09,16,15,28,28.30
2012,09,16,15,29,28.40
2012,09,16,15,30,28.50
2012,09,16,15,31,28.60
2012,09,16,15,32,28.60
2012,09,16,15,33,28.60
2012,09,16,15,34,28.50
2012,09,16,15,35,28.40
2012,09,16,15,36,28.30
2012,09,16,15,37,28.30
2012,09,16,15,38,28.20
2012,09,16,15,39,28.20
2012,09,16,15,40,28.10
2012,09,16,15,41,28.10
2012,09,16,15,42,28.10
2012,09,16,15,43,28.10
2012,09,16,15,44,28.10
2012,09,16,15,45,28.10
2012,09,16,15,46,28.10
2012,09,16,15,47,28.10
2012,09,16,15,48,28.00
2012,09,16,15,49,28.00
2012,09,16,15,50,28.00
2012,09,16,15,51,28.00
2012,09,16,15,52,28.00
2012,09,16,15,53,28.00
2012,09,16,15,54,28.00
2012,09,16,15,55,28.10
2012,09,16,15,56,28.10
2012,09,16,15,57,28.20
2012,09,16,15,58,28.20
2012,09,16,15,59,28.30
2012,09,16,16,00,28.30
2012,09,16,16,01,28.40
2012,09,16,16,02,28.50
2012,09,16,16,03,28.60
2012,09,16,16,04,28.70
2012,09,16,16,05,28.70
2012,09,16,16,06,28.80
2012,09,16,16,07,28.80
2012,09,16,16,08,28.80
2012,09,16,16,09,28.80
2012,09,16,16,10,28.80
2012,09,16,16,11,28.70
2012,09,16,16,12,28.60
2012,09,16,16,13,28.50
2012,09,16,16,14,28.50
2012,09,16,16,15,28.60
2012,09,16,16,16,28.60
2012,09,16,16,17,28.50
2012,09,16,16,18,28.50
2012,09,16,16,19,28.40
2012,09,16,16,20,28.30
2012,09,16,16,21,28.30
2012,09,16,16,22,28.30
2012,09,16,16,23,28.20
2012,09,16,16,24,28.20
2012,09,16,16,25,28.20
2012,09,16,16,26,28.20
2012,09,16,16,27,28.20
2012,09,16,16,28,28.10
2012,09,16,16,29,28.10
2012,09,16,16,30,28.10
2012,09,16,16,31,28.10
2012,09,16,16,32,28.10
2012,09,16,16,33,28.10
2012,09,16,16,34,28.10
2012,09,16,16,35,28.10
2012,09,16,16,36,28.10
2012,09,16,16,37,28.10
2012,09,16,16,38,28.20
2012,09,16,16,39,28.20
2012,09,16,16,40,28.20
2012,09,16,16,41,28.20
2012,09,16,16,42,28.30
2012,09,16,16,43,28.30
2012,09,16,16,44,28.30
2012,09,16,16,45,28.20
2012,09,16,16,46,28.20
2012,09,16,16,47,28.20
2012,09,16,16,48,28.20
2012,09,16,16,49,28.20
2012,09,16,16,50,28.20
2012,09,16,16,51,28.10
2012,09,16,16,52,28.00
2012,09,16,16,53,27.80
2012,09,16,16,54,27.70
2012,09,16,16,55,27.60
2012,09,16,16,56,27.60
2012,09,16,16,57,27.50
2012,09,16,16,58,27.40
2012,09,16,16,59,27.40
2012,09,16,17,00,27.40
2012,09,16,17,01,27.30
2012,09,16,17,02,27.30
2012,09,16,17,03,27.30
2012,09,16,17,04,27.30
2012,09,16,17,05,27.40
2012,09,16,17,06,27.40
2012,09,16,17,07,27.40
2012,09,16,17,08,27.50
2012,09,16,17,09,27.50
2012,09,16,17,10,27.50
2012,09,16,17,11,27.50
2012,09,16,17,12,27.60
2012,09,16,17,13,27.60
2012,09,16,17,14,27.60
2012,09,16,17,15,27.70
2012,09,16,17,16,27.80
2012,09,16,17,17,27.80
2012,09,16,17,18,27.80
2012,09,16,17,19,27.90
2012,09,16,17,20,27.90
2012,09,16,17,21,27.90
2012,09,16,17,22,27.90
2012,09,16,17,23,27.80
2012,09,16,17,24,27.80
2012,09,16,17,25,27.80
2012,09,16,17,26,27.90
2012,09,16,17,27,27.90
2012,09,16,17,28,27.90
2012,09,16,17,29,28.00
2012,09,16,17,30,28.00
2012,09,16,17,31,28.00
2012,09,16,17,32,28.00
2012,09,16,17,33,28.00
2012,09,16,17,34,27.90
2012,09,16,17,35,27.90
2012,09,16,17,36,27.90
2012,09,16,17,37,27.90